Location: Geroldsau
(48.7259°N, 8.2466°E)
Time: 02:26:03
(UTC+00:00)

Cosmos 1697 Rocket - Visible Passes

Search period start: 17 October 2021 00:00
Search period end: 27 October 2021 00:00
Orbit: 832 x 844 km, 71.0° (Epoch: 16 October)

Date Brightness Start Highest point End Pass type
(mag) Time Alt. Az. Time Alt. Az. Time Alt. Az.
17 Oct 5.1 02:37:31 11° SSE 02:37:31 11° SSE 02:37:45 10° SSE visible
17 Oct 2.7 17:20:38 10° SSW 17:26:16 76° ESE 17:31:57 10° NNE visible
17 Oct 4.8 19:06:16 10° W 19:10:51 25° NW 19:15:27 10° N visible
18 Oct 2.7 17:04:28 10° SSW 17:10:05 71° ESE 17:15:44 10° NNE visible
18 Oct 4.7 18:49:55 10° W 18:54:36 26° NW 18:59:19 10° NNE visible
19 Oct 4.6 18:33:35 10° WSW 18:38:22 27° NW 18:43:09 10° NNE visible
20 Oct 4.6 18:17:15 10° WSW 18:22:07 28° NW 18:26:59 10° NNE visible
21 Oct 4.5 18:00:56 10° WSW 18:05:52 30° NW 18:10:49 10° NNE visible
22 Oct 4.4 17:44:37 10° WSW 17:49:38 31° NW 17:54:40 10° NNE visible
22 Oct 5.5 19:35:04 10° NNW 19:35:34 10° NNW 19:36:05 10° NNW visible
23 Oct 4.3 17:28:19 10° WSW 17:33:23 33° NW 17:38:29 10° NNE visible
23 Oct 5.4 19:18:12 10° NW 19:19:16 10° NNW 19:20:21 10° NNW visible
24 Oct 4.2 17:12:00 10° WSW 17:17:09 35° NW 17:22:19 10° NNE visible
24 Oct 5.4 19:01:31 10° NW 19:02:58 11° NNW 19:04:25 10° N visible
25 Oct 4.1 16:55:42 10° WSW 17:00:55 37° NW 17:06:09 10° NNE visible
25 Oct 5.3 18:44:56 10° NW 18:46:40 11° NNW 18:48:25 10° N visible
26 Oct 4.0 16:39:25 10° WSW 16:44:41 39° NW 16:49:58 10° NNE visible
26 Oct 5.3 18:28:22 10° NW 18:30:23 12° NNW 18:32:23 10° N visible
